Atlanta, GA

3:34 AM EST on December 11, 2016 (GMT -0500)
Dekalb-Peachtree

Weather History for KPDK - January, 2014

Change the Weather History Date:

Monday, January 20, 2014

  Actual Average Record
Temperature  
Mean Temperature 47 °F 42 °F  
Max Temperature 66 °F 52 °F 66 °F (2014)
Min Temperature 28 °F 33 °F 16 °F (2008)
Degree Days  
Heating Degree Days 18 23  
Month to date heating degree days 544 460  
Since 1 July heating degree days 1701 1628  
Moisture  
Dew Point 22 °F    
Average Humidity 47    
Maximum Humidity 78    
Minimum Humidity 16    
Precipitation  
Precipitation 0.00 in 0.18 in 0.15 in (2012)
Month to date precipitation 2.87 2.69  
Year to date precipitation 2.87 2.69  
Snow  
Snow 0.00 in - - ()
Month to date snowfall T  
Since 1 July snowfall T  
Snow Depth 0.00 in    
Sea Level Pressure  
Sea Level Pressure 29.99 in    
Wind  
Wind Speed 5 mph (West)    
Max Wind Speed 16 mph    
Max Gust Speed 21 mph    
Visibility 10 miles    
Events      
T = Trace of Precipitation, MM = Missing Value Source: NWS Daily Summary

Daily Weather History Graph

Daily Weather History Graph

Search for Another Location

Airport or City:

Trip Planner

Search our weather history database for the weather conditions in past years. The results will help you decide how hot, cold, wet, or windy it might be!

Date:

Astronomy

Jan. 20, 2014 Rise Set
Actual Time 7:40 AM EST 5:56 PM EST
Civil Twilight 7:13 AM EST 6:23 PM EST
Nautical Twilight 6:43 AM EST 6:53 PM EST
Astronomical Twilight 6:13 AM EST 7:23 PM EST
Moon 10:15 PM EST (1/20) 9:53 AM EST (1/20)
Length of Visible Light 11h 09m
Length of Day
10h 15m
Waning Gibbous, 83% of the Moon is Illuminated
Jan 20
Waning Gibbous
Jan 24
Last Quarter
Jan 30
New
Feb 6
First Quarter
Feb 14
Full

Hourly Weather History & Observations

Time (EST) Temp. Windchill Dew Point Humidity Pressure Visibility Wind Dir Wind Speed Gust Speed Precip Events Conditions
12:53 AM 37.0 °F 31.6 °F 23.0 °F 57% 30.08 in 10.0 mi West 6.9 mph - N/A   Clear
1:53 AM 37.0 °F 32.4 °F 23.0 °F 57% 30.06 in 10.0 mi WNW 5.8 mph - N/A   Clear
2:53 AM 37.0 °F 31.6 °F 23.0 °F 57% 30.05 in 10.0 mi WSW 6.9 mph - N/A   Clear
3:53 AM 36.0 °F 32.1 °F 23.0 °F 59% 30.05 in 10.0 mi West 4.6 mph - N/A   Clear
4:53 AM 34.0 °F - 23.0 °F 64% 30.05 in 10.0 mi Calm Calm - N/A   Clear
5:53 AM 30.9 °F 27.5 °F 23.0 °F 72% 30.06 in 10.0 mi West 3.5 mph - N/A   Clear
6:53 AM 30.0 °F - 23.0 °F 75% 30.07 in 10.0 mi Calm Calm - N/A   Clear
7:53 AM 28.9 °F - 23.0 °F 78% 30.07 in 10.0 mi Calm Calm - N/A   Clear
8:53 AM 35.1 °F - 27.0 °F 72% 30.07 in 10.0 mi Calm Calm - N/A   Clear
9:53 AM 42.1 °F - 26.1 °F 53% 30.07 in 10.0 mi Calm Calm - N/A   Clear
10:53 AM 46.9 °F - 25.0 °F 42% 30.07 in 10.0 mi WNW 5.8 mph - N/A   Clear
11:53 AM 53.1 °F - 24.1 °F 32% 30.03 in 10.0 mi WNW 5.8 mph - N/A   Clear
12:53 PM 57.0 °F - 21.0 °F 25% 29.99 in 10.0 mi West 9.2 mph - N/A   Clear
1:53 PM 61.0 °F - 21.9 °F 22% 29.95 in 10.0 mi Variable 3.5 mph - N/A   Clear
2:53 PM 64.0 °F - 19.0 °F 18% 29.92 in 10.0 mi West 10.4 mph - N/A   Clear
3:53 PM 64.9 °F - 17.1 °F 16% 29.91 in 10.0 mi West 11.5 mph - N/A   Clear
4:53 PM 64.0 °F - 17.1 °F 16% 29.91 in 10.0 mi WSW 6.9 mph - N/A   Clear
5:53 PM 60.1 °F - 17.1 °F 19% 29.92 in 10.0 mi West 5.8 mph - N/A   Clear
6:53 PM 54.0 °F - 19.9 °F 26% 29.93 in 10.0 mi SW 6.9 mph - N/A   Clear
7:53 PM 52.0 °F - 19.9 °F 28% 29.94 in 10.0 mi West 4.6 mph - N/A   Clear
8:53 PM 53.1 °F - 21.0 °F 29% 29.93 in 10.0 mi SW 10.4 mph - N/A   Clear
9:53 PM 50.0 °F - 25.0 °F 38% 29.93 in 10.0 mi SW 6.9 mph - N/A   Clear
10:53 PM 46.0 °F 43.9 °F 25.0 °F 44% 29.91 in 10.0 mi SW 4.6 mph - N/A   Clear
11:53 PM 46.0 °F 43.9 °F 24.1 °F 42% 29.89 in 10.0 mi WSW 4.6 mph - N/A   Clear